Regional Weather Roundup
Issued by NWS

Home | Current Version | Previous Version | Graphics & Text | Print | Product List | Glossary On
Versions: 1 2 3 4 5 6 7 8 9 10 11 12 13 14 15 16 17 18 19 20 21 22 23 24 25 26 27 28 29 30 31 32 33 34 35 36 37 38 39 40 41 42 43 44 45 46 47 48 49 50
000
ASUS43 KOAX 040510
RWRNE

WEATHER ROUNDUP FOR NEBRASKA
NATIONAL WEATHER SERVICE OMAHA NE
1200 AM CDT FRI SEP 04 2015

NOTES: SATELLITE DATA IS BEING USED TO AUGMENT CLOUD COVER ABOVE
       12000 FEET.
       "FAIR" INDICATES FEW OR NO CLOUDS BELOW 12,000 FEET WITH NO
       SIGNIFICANT WEATHER AND/OR OBSTRUCTIONS TO VISIBILITY.

  * THESE STATIONS DO NOT REPORT WEATHER SUCH AS RAIN...SNOW OR FOG.

NEZ001>004-019>022-054>056-040600-
NEBRASKA PANHANDLE

CITY           SKY/WX    TMP DP  RH WIND       PRES   REMARKS
SCOTTSBLUFF    CLOUDY    68  59  73 S5        29.89F
ALLIANCE       CLOUDY    70  54  56 W10       29.87F
CHADRON        CLOUDY    76  49  38 SW7       29.81F
KIMBALL        MOCLDY    60  55  84 W6        29.93F
SIDNEY         CLOUDY    68  55  63 NE8       29.92F
$$

NEZ057>060-069>072-079>082-040600-
SOUTHWEST NEBRASKA

CITY           SKY/WX    TMP DP  RH WIND       PRES   REMARKS
NORTH PLATTE   LGT RAIN  80  61  52 S5        29.81R
IMPERIAL       CLOUDY    68  62  81 N10       29.83F
LEXINGTON      CLOUDY    81  61  49 S13       29.79S
MCCOOK         CLOUDY    84  59  42 W17G26    29.81R
OGALLALA       RAIN      69  62  77 SW8       29.91R
$$

NEZ005>010-023>029-035>040-094-040600-
NORTH CENTRAL NEBRASKA

CITY           SKY/WX    TMP DP  RH WIND       PRES   REMARKS
VALENTINE      CLOUDY    77  55  46 E7        29.76F
AINSWORTH      CLOUDY    76  64  65 S6        29.77F
BROKEN BOW     CLOUDY    80  61  52 SE8       29.80S
O`NEILL        CLOUDY    79  67  66 SE12G17   29.77F
ORD            MOCLDY    79  63  57 SE7       29.78R
THEDFORD       CLOUDY    73  60  63 SE3       29.79F
$$

NEZ041-046>049-061>064-073>077-083>087-040600-
SOUTH CENTRAL NEBRASKA

CITY           SKY/WX    TMP DP  RH WIND       PRES   REMARKS
GRAND ISLAND   MOCLDY    77  64  64 S14       29.82R
AURORA         MOCLDY    78  65  64 S13       29.82S
HASTINGS       MOCLDY    80  63  55 S12       29.82S
HEBRON         MOCLDY    78  63  58 S10       29.84S
HOLDREGE       CLOUDY    79  59  50 SE12      29.80F
KEARNEY *      MOCLDY    77  61  57 SE14      29.80F
YORK           MOCLDY    77  66  69 S13       29.84R
$$

NEZ011>018-030>034-042>045-040600-
NORTHEAST NEBRASKA

CITY           SKY/WX    TMP DP  RH WIND       PRES   REMARKS
NORFOLK        CLEAR     78  67  68 SE13      29.80S
ALBION         PTCLDY    74  65  74 SE8       29.81S
BLAIR          PTCLDY    78  66  67 S10       29.85S
COLUMBUS *     PTCLDY    79  64  61 S6        29.82S
FREMONT        PTCLDY    79  67  65 SE10G17   29.84S
TEKAMAH        PTCLDY    75  71  87 SE7       29.83R
WAYNE          PTCLDY    76  70  83 SE8       29.81S
$$

NEZ050>053-065>068-078-088>093-040600-
SOUTHEAST NEBRASKA

CITY           SKY/WX    TMP DP  RH WIND       PRES   REMARKS
LINCOLN        PTCLDY    79  67  66 S13       29.84S
OMAHA EPPLEY   PTCLDY    80  69  69 S14       29.85R
BEATRICE       MOCLDY    77  67  70 S9        29.86S
FALLS CITY     PTCLDY    76  67  73 S9        29.88R
NEBRASKA CITY  PTCLDY    74  65  73 S9        29.88R
PLATTSMOUTH    PTCLDY    76  66  72 SE10      29.87R
$$

NEZ044-045-051>053-067-040600-
OMAHA AREA

CITY           SKY/WX    TMP DP  RH WIND       PRES   REMARKS
OMAHA EPPLEY   PTCLDY    80  69  69 S14       29.85R
BLAIR          PTCLDY    78  66  67 S10       29.85S
FREMONT        PTCLDY    79  67  65 SE10G17   29.84S
MILLARD        PTCLDY    77  69  77 SE6       29.85S
OFFUTT AFB     PTCLDY    77  69  76 SE9       29.85S
PLATTSMOUTH    PTCLDY    76  66  72 SE10      29.87R
WAHOO          FAIR      74  69  82 SE9       29.84S
$$




USA.gov is the U.S. government's official web portal to all federal, state and local government web resources and services.